Content
SEND FEEDBACK

Switzerland Flag

ZÜRICH, SWITZERLAND


Home > Europe > Switzerland
Elevation: 1867 feet     Latitude: 47 23N     Longitude: 008 34E

WEATHER
 
SELECT A DAY
Number of Records: 300,630;   Date Range: 7/1/96 - 3/22/16
 
SHARE

PRINT THIS DATA

[ ← Previous Day ]
WEATHER ALMANAC - JANUARY 30, 2014
[ Next Day → ]
[ °C ]   °F
Weather ElementAverageHighLow
Temperature30 °F33.8 °F (2:50 pm)24.8 °F (4:50 am)
Dewpoint26.9 °F28.4 °F (11:50 am)23 °F (4:50 am)
Humidity88.7 %100 % (5:50 am)81 % (2:50 pm)
Barometer29.65 in29.68 in (6:50 am)29.59 in (3:50 pm)
Wind Speed1.2 mph3.5 mph (3:50 pm)
Weather ElementAverage
Visibility3.8 mi
Wind DirectionNNE (16.5 °)

Weather ElementTotal
Precipitation---
Heating Degree Days35.7 (Base 65)
Averaged from 23 records on January 30, 2014
WEATHER CONDITIONS BREAKOUT
WIND DIRECTION BREAKOUT
WEATHER BY HOUR - JANUARY 30, 2014
[ °C ]   °F
Local TimeTemperatureDewpointHumidityBarometerVisibilityWind DirectionWind SpeedGust SpeedPrecipitationEventsConditions
1:50 AM30.2 °F26.6 °F86 %29.65 in6.2 miCalmMostly Cloudy
2:50 AM28.4 °F26.6 °F93 %29.65 in5.6 miVariable1.2 mphPartly Cloudy
3:50 AM26.6 °F24.8 °F93 %29.65 in5.0 miCalm
4:50 AM24.8 °F23.0 °F93 %29.65 in3.7 miCalm
5:50 AM24.8 °F24.8 °F100 %29.65 in3.1 miCalmMist
6:50 AM24.8 °F23.0 °F93 %29.68 in3.7 miVariable2.3 mph
7:50 AM26.6 °F24.8 °F93 %29.68 in3.1 miCalm
8:50 AM26.6 °F24.8 °F93 %29.68 in3.1 miCalm
9:50 AM28.4 °F26.6 °F93 %29.68 inCalmPartly Cloudy
10:50 AM30.2 °F26.6 °F86 %29.68 inCalmPartly Cloudy
11:50 AM32.0 °F28.4 °F87 %29.68 in2.8 miVariable2.3 mphPartly Cloudy
12:50 PM32.0 °F28.4 °F87 %29.65 in3.1 miVariable2.3 mph
1:50 PM32.0 °F28.4 °F87 %29.62 in3.1 miVariable2.3 mphPartly Cloudy
2:50 PM33.8 °F28.4 °F81 %29.62 in3.1 miVariable2.3 mphPartly Cloudy
3:50 PM33.8 °F28.4 °F81 %29.59 in3.7 miNorth (360°)3.5 mphMostly Cloudy
4:50 PM33.8 °F28.4 °F81 %29.59 in4.3 miVariable2.3 mphMostly Cloudy
5:50 PM32.0 °F28.4 °F87 %29.62 in4.3 miVariable1.2 mphMostly Cloudy
6:50 PM32.0 °F28.4 °F87 %29.62 in4.3 miNNE (20°)3.5 mphMostly Cloudy
7:50 PM32.0 °F28.4 °F87 %29.62 in3.7 miVariable1.2 mphMostly Cloudy
8:50 PM32.0 °F28.4 °F87 %29.62 in3.7 miCalmMostly Cloudy
9:50 PM30.2 °F26.6 °F86 %29.65 in3.7 miCalmMostly Cloudy
10:50 PM30.2 °F28.4 °F93 %29.65 in3.1 miVariable2.3 mphOvercast
11:50 PM32.0 °F28.4 °F87 %29.68 in3.1 miCalmOvercast
Hourly data recorded from LSMD, located miles away from Zürich, Switzerland




STORIES FROM OUR PARTNERS